Flag for Uzbekistan Weather past 2 weeks in Tashkent, Uzbekistan

Now
41 °F

Fog.


Feels Like: 39 °F
Forecast: 40 / 58 °F
Wind: 3 mph from Southwest

Location: Tashkent

Current Time: Apr 1, 2015 at 11:42:44 AM

Latest Report: Apr 1, 2015 at 10:30 AM


Visibility: 3 mi

Pressure: 29.89 "Hg

Humidity: 76%

Dew point: 34 °F

Location of TashkentLocation

Historic Weather in Tashkent — Graph

°F

Tashkent temperature yesterday

Maximum temperature yesterday: 41 °F (at 12:00 PM)
Minimum temperature yesterday: 21 °F (at 12:30 AM)
Average temperature yesterday: 32 °F

Past Weeks' High & Low Weather Summary

 TemperatureHumidityPressure
High77 °F (Mar 23, 1:30 PM)100% (Mar 20, 8:00 AM)30.48 "Hg (Mar 20, 8:00 AM)
Low19 °F (Mar 30, 6:30 AM)23% (Mar 21, 3:00 PM)29.53 "Hg (Mar 23, 11:00 PM)
Average50 °F61%30.16 "Hg
* Reported Mar 17 10:00 AM — Apr 1 10:00 AM, Tashkent, Weather by CustomWeather, © 2015

Note: Actual official high and low records may vary slightly from our data, if they occured in-between our weather recording intervals... More about our weather records

Advertising

Tashkent weather history for previous 24 hours

 ConditionsComfort  
Time TempWeatherWind HumidityBarometerVisibility
10:00 AM
Wed, Apr 1
41 °FFog.5 mph76%29.89 "Hg3 mi
9:30 AM41 °FFog.3 mph76%29.86 "Hg2 mi
9:00 AM39 °FFog.3 mph81%29.89 "Hg2 mi
8:30 AM39 °FFog.5 mph81%29.89 "Hg2 mi
8:00 AM37 °FSprinkles. Fog.1 mph87%29.89 "Hg2 mi
7:30 AM37 °FSprinkles. Fog.2 mph81%29.86 "Hg2 mi
7:00 AM37 °FFog.2 mph75%29.86 "Hg2 mi
6:30 AM37 °FSprinkles. Fog.3 mph81%29.86 "Hg2 mi
6:00 AM37 °FSprinkles. Fog.5 mph75%29.86 "Hg2 mi
5:30 AM37 °FMostly cloudy.7 mph75%29.83 "HgN/A
5:00 AM37 °FOvercast.3 mph70%29.86 "HgN/A
4:30 AM36 °FOvercast.3 mph81%29.89 "HgN/A
4:00 AM36 °FSprinkles. Overcast.2 mph75%29.89 "HgN/A
3:30 AM36 °FSprinkles. Overcast.6 mph75%29.89 "HgN/A
3:00 AM34 °FSnow flurries. Overcast.3 mph81%29.89 "HgN/A
2:30 AM34 °FSnow flurries. Overcast.7 mph75%29.89 "HgN/A
2:00 AM36 °FSnow flurries. Overcast.8 mph70%29.89 "HgN/A
1:30 AM37 °FSnow flurries. Overcast.8 mph60%29.89 "HgN/A
1:00 AM36 °FSnow flurries. Overcast.7 mph60%29.89 "HgN/A
12:30 AM37 °FSnow flurries. Overcast.7 mph56%29.89 "HgN/A
12:00 AM37 °FSnow flurries. Overcast.7 mph56%29.89 "HgN/A
11:30 PM
Tue, Mar 31
37 °FSnow flurries. Overcast.8 mph56%29.89 "HgN/A
11:00 PM39 °FSnow flurries. Overcast.6 mph45%29.89 "HgN/A
10:30 PM37 °FSnow flurries. Overcast.2 mph48%29.89 "HgN/A
10:00 PM37 °FClear.2 mph48%29.89 "Hg10 mi
9:30 PM37 °FPassing clouds.3 mph48%29.89 "HgN/A
9:00 PM37 °FMostly cloudy.3 mph45%29.92 "HgN/A
8:30 PM37 °FMostly cloudy.5 mph45%29.92 "HgN/A
8:00 PM37 °FMostly cloudy.2 mph45%29.92 "HgN/A
7:30 PM37 °FMostly cloudy.5 mph45%29.95 "HgN/A
7:00 PM37 °FOvercast.10 mph45%29.95 "HgN/A
6:30 PM37 °FOvercast.10 mph41%29.92 "HgN/A
6:00 PM39 °FOvercast.8 mph42%29.92 "Hg4 mi
5:30 PM39 °FOvercast.6 mph42%29.92 "Hg4 mi
5:00 PM39 °FOvercast.6 mph39%29.92 "Hg4 mi
4:30 PM39 °FOvercast.6 mph42%29.95 "Hg4 mi
4:00 PM39 °FClear.8 mph39%29.98 "Hg4 mi
3:30 PM41 °FClear.7 mph36%29.98 "Hg4 mi
3:00 PM41 °FClear.7 mph33%29.98 "Hg4 mi
2:30 PM41 °FClear.8 mph31%30.01 "Hg4 mi
2:00 PM41 °FClear.3 mph28%30.01 "Hg4 mi
1:30 PM41 °FSunny.2 mph28%30.01 "Hg10 mi
1:00 PM41 °FSunny.3 mph31%30.04 "Hg10 mi
12:30 PM39 °FPassing clouds.6 mph30%30.07 "HgN/A
12:00 PM41 °FSunny.5 mph31%30.09 "Hg10 mi
11:30 AM39 °FSunny.5 mph33%30.12 "Hg10 mi
11:00 AM37 °FPassing clouds.5 mph35%30.15 "HgN/A
Weather by CustomWeather, © 2015

See weather overviewHow to use our weather pages